Hickory, NC

11:24 PM EST on February 27, 2017 (GMT -0500)
Hickory Regional

Weather History for KHKY - June, 2014

Change the Weather History Date:

Monday, June 9, 2014

  Actual Average Record
Temperature  
Mean Temperature 74 °F -  
Max Temperature 84 °F 83 °F 99 °F (2008)
Min Temperature 66 °F 62 °F 51 °F (1955)
Cooling Degree Days 9    
Growing Degree Days 24 (Base 50)    
Moisture  
Dew Point 67 °F    
Average Humidity 86    
Maximum Humidity 100    
Minimum Humidity 54    
Precipitation  
Precipitation 0.26 in - - ()
Sea Level Pressure  
Sea Level Pressure 29.90 in    
Wind  
Wind Speed 2 mph (North)    
Max Wind Speed 8 mph    
Max Gust Speed -    
Visibility 6 miles    
Events Fog , Rain , Thunderstorm    
Averages and records for this station are not official NWS values.
T = Trace of Precipitation, MM = Missing Value Source: NWS Daily Summary

Daily Weather History Graph

Daily Weather History Graph

Search for Another Location

Airport or City:

Trip Planner

Search our weather history database for the weather conditions in past years. The results will help you decide how hot, cold, wet, or windy it might be!

Date:

Astronomy

Jun. 09, 2014 Rise Set
Actual Time 6:09 AM EDT 8:40 PM EDT
Civil Twilight 5:39 AM EDT 9:10 PM EDT
Nautical Twilight 5:02 AM EDT 9:47 PM EDT
Astronomical Twilight 4:21 AM EDT 10:28 PM EDT
Moon 5:06 PM EDT (6/9) 3:28 AM EDT (6/9)
Length of Visible Light 15h 31m
Length of Day
14h 31m
Waxing Gibbous, 85% of the Moon is Illuminated
Jun 9
Waxing Gibbous
Jun 13
Full
Jun 19
Last Quarter
Jun 27
New
Jul 5
First Quarter

Hourly Weather History & Observations

Time (EDT) Temp. Heat Index Dew Point Humidity Pressure Visibility Wind Dir Wind Speed Gust Speed Precip Events Conditions
12:53 AM 71.1 °F - 68.0 °F 90% 29.86 in 10.0 mi Calm Calm - N/A   Overcast
1:31 AM 69.8 °F - 68.0 °F 94% 29.91 in 6.0 mi Calm Calm - N/A   Scattered Clouds
1:53 AM 69.1 °F - 68.0 °F 96% 29.85 in 4.0 mi Calm Calm - N/A   Mostly Cloudy
2:53 AM 70.0 °F - 68.0 °F 93% 29.83 in 6.0 mi Calm Calm - N/A   Overcast
3:34 AM 69.8 °F - 68.0 °F 94% 29.90 in 9.0 mi Calm Calm - N/A   Overcast
3:53 AM 69.1 °F - 68.0 °F 96% 29.83 in 6.0 mi Calm Calm - N/A   Overcast
4:11 AM 69.8 °F - 66.2 °F 88% 29.90 in 3.0 mi Calm Calm - N/A   Scattered Clouds
4:45 AM 66.2 °F - 66.2 °F 100% 29.89 in 1.8 mi Calm Calm - 0.01 in   Partly Cloudy
4:47 AM 66.2 °F - 66.2 °F 100% 29.89 in 0.5 mi Calm Calm - 0.01 in Fog Fog
4:53 AM 66.9 °F - 66.0 °F 97% 29.83 in 0.2 mi Calm Calm - 0.01 in Fog Fog
5:53 AM 68.0 °F - 66.9 °F 96% 29.84 in 0.2 mi Calm Calm - N/A Fog Fog
6:18 AM 68.0 °F - 66.2 °F 94% 29.91 in 0.5 mi Calm Calm - N/A Fog Fog
6:25 AM 68.0 °F - 66.2 °F 94% 29.91 in 0.2 mi Calm Calm - N/A Fog Fog
6:34 AM 68.0 °F - 66.2 °F 94% 29.92 in 1.0 mi NNW 3.5 mph - N/A   Mist
6:40 AM 68.0 °F - 66.2 °F 94% 29.92 in 3.0 mi Calm Calm - N/A   Overcast
6:53 AM 68.0 °F - 66.9 °F 96% 29.86 in 3.0 mi Calm Calm - N/A   Overcast
7:00 AM 68.0 °F - 66.2 °F 94% 29.93 in 2.5 mi NNW 4.6 mph - N/A   Overcast
7:10 AM 68.0 °F - 66.2 °F 94% 29.93 in 4.0 mi NW 4.6 mph - N/A   Overcast
7:37 AM 68.0 °F - 66.2 °F 94% 29.93 in 6.0 mi Calm Calm - N/A   Partly Cloudy
7:53 AM 69.1 °F - 68.0 °F 96% 29.88 in 4.0 mi Calm Calm - N/A   Scattered Clouds
8:07 AM 69.8 °F - 66.2 °F 88% 29.94 in 5.0 mi NNW 3.5 mph - N/A   Mostly Cloudy
8:41 AM 71.6 °F - 68.0 °F 88% 29.94 in 10.0 mi Variable 3.5 mph - N/A   Mostly Cloudy
8:48 AM 71.6 °F - 66.2 °F 83% 29.95 in 10.0 mi North 3.5 mph - N/A   Mostly Cloudy
8:53 AM 71.1 °F - 66.9 °F 87% 29.89 in 10.0 mi Calm Calm - N/A   Mostly Cloudy
9:10 AM 71.6 °F - 64.4 °F 78% 29.95 in 10.0 mi Calm Calm - N/A   Scattered Clouds
9:31 AM 73.4 °F - 66.2 °F 78% 29.95 in 10.0 mi Calm Calm - N/A   Mostly Cloudy
9:53 AM 73.0 °F - 66.0 °F 79% 29.90 in 10.0 mi Calm Calm - N/A   Overcast
10:11 AM 73.4 °F - 66.2 °F 78% 29.96 in 10.0 mi ENE 4.6 mph - N/A   Overcast
10:25 AM 71.6 °F - 66.2 °F 83% 29.96 in 10.0 mi ENE 6.9 mph - N/A   Mostly Cloudy
10:44 AM 73.4 °F - 66.2 °F 78% 29.96 in 10.0 mi East 5.8 mph - N/A   Mostly Cloudy
11:24 AM 75.2 °F - 66.2 °F 73% 29.96 in 10.0 mi Variable 3.5 mph - N/A   Scattered Clouds
11:53 AM 75.9 °F - 64.9 °F 69% 29.90 in 10.0 mi Variable 3.5 mph - N/A   Scattered Clouds
12:50 PM 78.8 °F - 66.2 °F 65% 29.95 in 10.0 mi Variable 3.5 mph - N/A   Mostly Cloudy
12:53 PM 79.0 °F - 66.0 °F 64% 29.88 in 10.0 mi South 8.1 mph - N/A   Mostly Cloudy
1:01 PM 78.8 °F - 66.2 °F 65% 29.94 in 10.0 mi Variable 4.6 mph - N/A   Scattered Clouds
1:53 PM 81.0 °F 83.0 °F 66.0 °F 60% 29.86 in 10.0 mi South 5.8 mph - N/A   Partly Cloudy
4:53 PM 82.0 °F 84.1 °F 66.0 °F 58% 29.81 in 10.0 mi South 5.8 mph - N/A   Partly Cloudy
5:53 PM 82.9 °F 84.6 °F 64.9 °F 54% 29.80 in 10.0 mi Variable 4.6 mph - N/A   Scattered Clouds
6:39 PM 75.2 °F - 66.2 °F 73% 29.90 in 1.5 mi NNW 6.9 mph - 0.08 in Rain Heavy Rain
6:44 PM 71.6 °F - 68.0 °F 88% 29.91 in 0.8 mi Variable 4.6 mph - 0.16 in Rain , Thunderstorm Heavy Rain
6:53 PM 71.1 °F - 68.0 °F 90% 29.85 in 0.8 mi North 5.8 mph - 0.24 in Rain , Thunderstorm Heavy Thunderstorms and Rain
6:57 PM 71.6 °F - 69.8 °F 94% 29.90 in 2.0 mi NNE 6.9 mph - 0.00 in Rain , Thunderstorm Light Thunderstorms and Rain
7:04 PM 71.6 °F - 69.8 °F 94% 29.90 in 10.0 mi North 6.9 mph - 0.00 in Rain , Thunderstorm Light Rain
7:25 PM 73.4 °F - 69.8 °F 88% 29.90 in 10.0 mi North 6.9 mph - 0.00 in   Partly Cloudy
7:53 PM 73.0 °F - 68.0 °F 84% 29.85 in 10.0 mi NE 5.8 mph - 0.00 in   Clear
8:53 PM 71.1 °F - 66.9 °F 87% 29.85 in 10.0 mi Calm Calm - N/A   Scattered Clouds
9:53 PM 70.0 °F - 66.9 °F 90% 29.87 in 9.0 mi Calm Calm - N/A   Clear
10:53 PM 68.0 °F - 66.9 °F 96% 29.88 in 9.0 mi Calm Calm - 0.01 in   Clear
11:53 PM 69.1 °F - 66.0 °F 90% 29.89 in 10.0 mi Calm Calm - N/A   Scattered Clouds